Content
SEND FEEDBACK

Daily
Averages
Monthly
Summary
United States of America

SIMPSON, NORTH CAROLINA


Home > North America > United States > North Carolina
Elevation: 25 feet     Latitude: 35 37N     Longitude: 077 23W

WEATHER
 
SELECT A DAY
Number of Records: 428,542;   Date Range: 1/1/95 - 7/23/14
 
SHARE

PRINT THIS DATA

[ ← Previous Day ]
WEATHER ALMANAC - FEBRUARY 13, 2013
[ Next Day → ]
[ °C ]   °F
Weather ElementAverageHighLow
Temperature49 °F51.8 °F (12:35 am)46.4 °F (3:15 am)
Dewpoint46.5 °F50 °F (3:15 pm)41 °F (12:35 am)
Humidity91.6 %100 % (4:55 am)67 % (12:35 am)
Barometer29.79 in29.98 in (12:35 am)29.65 in (5:15 pm)
Wind Speed4.3 mph12.7 mph (6:15 pm)
Wind Gust20.7 mph (7:15 pm)
Weather ElementAverage
Visibility7.8 mi
Wind DirectionSE (129.6 °)

Weather ElementTotal
Precipitation0.42 in
Heating Degree Days15.9 (Base 65)
Averaged from 71 records on February 13, 2013
WEATHER CONDITIONS BREAKOUT
WIND DIRECTION BREAKOUT
WEATHER BY HOUR - FEBRUARY 13, 2013
[ °C ]   °F
Local TimeTemperatureDewpointHumidityBarometerVisibilityWind DirectionWind SpeedGust SpeedPrecipitationEventsConditions
12:35 AM51.8 °F41.0 °F67 %29.98 in10.0 miSouth (190°)3.5 mphOvercast
12:55 AM51.8 °F41.0 °F67 %29.98 in10.0 miSSW (200°)5.8 mphRainLight Rain
1:15 AM50.0 °F42.8 °F76 %29.97 in10.0 miCalmRainLight Rain
1:35 AM50.0 °F44.6 °F82 %29.96 in10.0 miCalm0.01 inRainLight Rain
1:55 AM50.0 °F42.8 °F76 %29.93 in10.0 miSSE (150°)4.6 mph0.01 inDrizzle
2:15 AM48.2 °F42.8 °F82 %29.92 in10.0 miSouth (170°)3.5 mph0.01 inRainLight Rain
2:35 AM48.2 °F44.6 °F87 %29.92 in10.0 miCalm0.02 inRainRain
2:55 AM48.2 °F44.6 °F87 %29.91 in10.0 miCalm0.02 inRainRain
3:15 AM46.4 °F44.6 °F93 %29.89 in10.0 miSouth (170°)3.5 mph0.01 inLight Drizzle
3:35 AM48.2 °F46.4 °F93 %29.88 in10.0 miSSW (200°)3.5 mph0.01 inOvercast
3:55 AM48.2 °F46.4 °F93 %29.93 in10.0 miWest (260°)4.6 mph0.01 inOvercast
4:15 AM48.2 °F44.6 °F87 %29.88 in10.0 miCalmRainLight Rain
4:35 AM48.2 °F46.4 °F93 %29.88 in10.0 miCalm0.02 inRainLight Rain
4:55 AM46.4 °F46.4 °F100 %29.87 in10.0 miCalm0.03 inRainLight Rain
5:15 AM46.4 °F46.4 °F100 %29.86 in10.0 miCalmOvercast
5:35 AM46.4 °F46.4 °F100 %29.85 in10.0 miCalmRainRain
5:55 AM46.4 °F46.4 °F100 %29.84 in10.0 miCalm0.01 inLight Drizzle
6:15 AM46.4 °F46.4 °F100 %29.85 in7.0 miCalm0.01 inDrizzle
6:35 AM46.4 °F46.4 °F100 %29.87 in4.0 miCalm0.02 inDrizzle
6:55 AM46.4 °F46.4 °F100 %29.87 in5.0 miSouth (170°)3.5 mph0.05 inRainRain
7:15 AM46.4 °F46.4 °F100 %29.87 in5.0 miCalm0.02 inRainLight Rain
7:35 AM46.4 °F44.6 °F93 %29.87 in4.0 miCalm0.03 inRainRain
7:55 AM46.4 °F44.6 °F93 %29.87 in4.0 miENE (60°)3.5 mph0.04 inDrizzle
8:15 AM46.4 °F46.4 °F100 %29.88 in2.0 miNorth (10°)3.5 mph0.01 inDrizzle
8:35 AM46.4 °F46.4 °F100 %29.88 in2.5 miCalm0.02 inLight Drizzle
8:55 AM46.4 °F46.4 °F100 %29.86 in5.0 miNE (40°)3.5 mph0.02 inOvercast
9:15 AM46.4 °F46.4 °F100 %29.86 in5.0 miNE (50°)4.6 mphOvercast
9:35 AM46.4 °F46.4 °F100 %29.84 in3.0 miNE (50°)4.6 mph0.01 inOvercast
9:55 AM46.4 °F46.4 °F100 %29.83 in7.0 miNE (50°)3.5 mph0.01 inOvercast
10:15 AM48.2 °F46.4 °F93 %29.81 in10.0 miNE (50°)4.6 mphOvercast
10:35 AM48.2 °F46.4 °F93 %29.82 in7.0 miNE (40°)3.5 mphOvercast
10:55 AM48.2 °F46.4 °F93 %29.80 in5.0 miNNE (30°)3.5 mphOvercast
11:15 AM48.2 °F46.4 °F93 %29.79 in5.0 miNE (40°)3.5 mphOvercast
11:35 AM48.2 °F46.4 °F93 %29.77 in4.0 miNNE (30°)3.5 mphOvercast
11:55 AM48.2 °F46.4 °F93 %29.78 in10.0 miCalmOvercast
12:15 PM48.2 °F46.4 °F93 %29.76 in10.0 miNorth (10°)4.6 mphOvercast
12:35 PM48.2 °F46.4 °F93 %29.74 in10.0 miEast (80°)3.5 mphOvercast
12:55 PM48.2 °F46.4 °F93 %29.71 in10.0 miESE (110°)6.9 mphOvercast
1:15 PM48.2 °F46.4 °F93 %29.71 in7.0 miEast (80°)5.8 mphOvercast
1:35 PM48.2 °F46.4 °F93 %29.70 in7.0 miESE (120°)4.6 mphOvercast
1:55 PM48.2 °F48.2 °F100 %29.71 in7.0 miCalmOvercast
2:15 PM48.2 °F48.2 °F100 %29.71 in4.0 miCalmOvercast
2:35 PM48.2 °F48.2 °F100 %29.67 in2.5 miSSE (160°)3.5 mphOvercast
2:55 PM50.0 °F48.2 °F94 %29.67 in2.5 miCalmOvercast
3:15 PM50.0 °F50.0 °F100 %29.66 in5.0 miSouth (170°)6.9 mphOvercast
3:35 PM50.0 °F50.0 °F100 %29.68 in7.0 miSSW (200°)5.8 mphRainLight Rain
3:55 PM50.0 °F50.0 °F100 %29.66 in5.0 miCalmRainLight Rain
4:15 PM50.0 °F50.0 °F100 %29.67 in7.0 miWSW (240°)3.5 mphRainLight Rain
4:35 PM50.0 °F50.0 °F100 %29.67 in3.0 miSW (220°)5.8 mph0.01 inLight Drizzle
4:55 PM50.0 °F50.0 °F100 %29.69 in3.0 miWSW (240°)5.8 mph0.01 inRainLight Rain
5:15 PM50.0 °F50.0 °F100 %29.65 in5.0 miSW (220°)6.9 mphOvercast
5:35 PM51.8 °F50.0 °F94 %29.67 in4.0 miWSW (240°)5.8 mphOvercast
5:55 PM51.8 °F50.0 °F94 %29.67 in10.0 miSW (230°)9.2 mphOvercast
6:15 PM51.8 °F50.0 °F94 %29.67 in10.0 miWSW (250°)12.7 mphOvercast
6:35 PM51.8 °F50.0 °F94 %29.68 in10.0 miWest (260°)8.1 mph18.4 mphOvercast
6:55 PM51.8 °F50.0 °F94 %29.70 in10.0 miWest (260°)11.5 mph19.6 mphOvercast
7:15 PM51.8 °F50.0 °F94 %29.72 in10.0 miWest (270°)10.4 mph20.7 mphOvercast
7:35 PM51.8 °F48.2 °F88 %29.72 in10.0 miWest (260°)9.2 mph19.6 mphOvercast
7:55 PM51.8 °F46.4 °F82 %29.72 in10.0 miWest (270°)9.2 mph19.6 mphMostly Cloudy
8:15 PM51.8 °F46.4 °F82 %29.71 in10.0 miWest (270°)10.4 mph18.4 mphMostly Cloudy
8:35 PM51.8 °F46.4 °F82 %29.73 in10.0 miWest (280°)8.1 mph16.1 mphOvercast
8:55 PM51.8 °F46.4 °F82 %29.75 in10.0 miWest (270°)6.9 mph18.4 mphOvercast
9:15 PM51.8 °F46.4 °F82 %29.75 in10.0 miWest (280°)8.1 mphOvercast
9:35 PM51.8 °F46.4 °F82 %29.76 in10.0 miWest (280°)11.5 mph19.6 mphOvercast
9:55 PM51.8 °F44.6 °F76 %29.77 in10.0 miWest (270°)8.1 mph19.6 mphOvercast
10:15 PM50.0 °F44.6 °F82 %29.77 in10.0 miWest (280°)5.8 mphOvercast
10:35 PM50.0 °F44.6 °F82 %29.78 in10.0 miWest (280°)6.9 mphScattered Clouds
10:55 PM50.0 °F44.6 °F82 %29.79 in10.0 miWest (280°)8.1 mphScattered Clouds
11:15 PM50.0 °F44.6 °F82 %29.80 in10.0 miWest (280°)5.8 mphClear
11:35 PM50.0 °F44.6 °F82 %29.80 in10.0 miWNW (290°)5.8 mphScattered Clouds
11:55 PM48.2 °F44.6 °F87 %29.80 in10.0 miWNW (290°)8.1 mphScattered Clouds
Hourly data recorded from KPGV, located miles away from Simpson, North Carolina







STORIES FROM OUR PARTNERS